PTLCS SBSL-SOCA

Flight info

Callsign PTLCS
Flight time 3h 18m
Altitude 18000
Route SAVIO Z81 BEL Z84 EPKIP DCT ALDIX ALDIX1S
Aircraft BT36/L-BDFGLORY/S

Departure

Time 2026-04-25 17:29
Airport Marechal Cunha Machado International Airport (SBSL)

Arrival

Time 2026-04-25 20:47
Airport Cayenne – Félix Eboué Airport (SOCA)
Time Latitude Longitude Altitude Speed Heading
2026-04-25 17:11 -2.58546 -44.24089 159 ft 0 kts 87°
2026-04-25 17:18 -2.58546 -44.24090 159 ft 0 kts 87°
2026-04-25 17:19 -2.58555 -44.24056 159 ft 11 kts 152°
2026-04-25 17:20 -2.58641 -44.24008 159 ft 12 kts 76°
2026-04-25 17:20 -2.58598 -44.23896 158 ft 23 kts 70°
2026-04-25 17:20 -2.58534 -44.23720 158 ft 31 kts 71°
2026-04-25 17:20 -2.58460 -44.23516 157 ft 27 kts 70°
2026-04-25 17:21 -2.58444 -44.23443 157 ft 0 kts 107°
2026-04-25 17:24 -2.58444 -44.23444 157 ft 0 kts 107°
2026-04-25 17:26 -2.58448 -44.23434 157 ft 6 kts 122°
2026-04-25 17:26 -2.58517 -44.23395 157 ft 18 kts 190°
2026-04-25 17:27 -2.58648 -44.23492 159 ft 29 kts 220°
2026-04-25 17:27 -2.58833 -44.23642 157 ft 39 kts 220°
2026-04-25 17:27 -2.59003 -44.23777 156 ft 27 kts 217°
2026-04-25 17:27 -2.59057 -44.23819 155 ft 30 kts 220°
2026-04-25 17:28 -2.59149 -44.23899 155 ft 4 kts 34°
2026-04-25 17:28 -2.59149 -44.23898 155 ft 0 kts 38°
2026-04-25 17:28 -2.59149 -44.23899 155 ft 0 kts 38°
2026-04-25 17:28 -2.59149 -44.23898 155 ft 0 kts 39°
2026-04-25 17:29 -2.58979 -44.23761 156 ft 70 kts 39°
2026-04-25 17:29 -2.58489 -44.23375 325 ft 101 kts 34°
2026-04-25 17:29 -2.57870 -44.22903 569 ft 123 kts 35°
2026-04-25 17:29 -2.57163 -44.22316 826 ft 140 kts 39°
2026-04-25 17:30 -2.56405 -44.21696 1199 ft 141 kts 39°
2026-04-25 17:30 -2.55642 -44.21079 1581 ft 140 kts 38°
2026-04-25 17:30 -2.54903 -44.20482 2045 ft 133 kts 39°
2026-04-25 17:30 -2.54207 -44.19920 2544 ft 125 kts 39°
2026-04-25 17:31 -2.53440 -44.19594 3031 ft 121 kts
2026-04-25 17:31 -2.52662 -44.19869 3479 ft 123 kts 323°
2026-04-25 17:31 -2.52109 -44.20526 3893 ft 123 kts 312°
2026-04-25 17:31 -2.51539 -44.21202 4246 ft 131 kts 312°
2026-04-25 17:32 -2.50942 -44.21925 4602 ft 139 kts 311°
2026-04-25 17:32 -2.50321 -44.22685 4949 ft 143 kts 311°
2026-04-25 17:32 -2.49680 -44.23470 5296 ft 148 kts 311°
2026-04-25 17:32 -2.49022 -44.24275 5656 ft 150 kts 311°
2026-04-25 17:33 -2.48361 -44.25086 6056 ft 151 kts 311°
2026-04-25 17:33 -2.47692 -44.25903 6441 ft 152 kts 310°
2026-04-25 17:33 -2.47026 -44.26721 6838 ft 151 kts 311°
2026-04-25 17:33 -2.46360 -44.27535 7233 ft 151 kts 310°
2026-04-25 17:34 -2.45700 -44.28344 7636 ft 149 kts 311°
2026-04-25 17:34 -2.45044 -44.29142 8037 ft 148 kts 311°
2026-04-25 17:34 -2.44396 -44.29932 8447 ft 146 kts 311°
2026-04-25 17:34 -2.43862 -44.30792 8854 ft 148 kts 287°
2026-04-25 17:35 -2.43766 -44.31797 9266 ft 147 kts 274°
2026-04-25 17:35 -2.43708 -44.32813 9690 ft 146 kts 275°
2026-04-25 17:35 -2.43654 -44.33822 10084 ft 145 kts 275°
2026-04-25 17:35 -2.43601 -44.34838 10473 ft 145 kts 274°
2026-04-25 17:36 -2.43549 -44.35829 10860 ft 144 kts 274°
2026-04-25 17:36 -2.43497 -44.36826 11257 ft 143 kts 274°
2026-04-25 17:36 -2.43445 -44.37818 11657 ft 143 kts 274°
2026-04-25 17:36 -2.43393 -44.38820 12066 ft 142 kts 274°
2026-04-25 17:37 -2.43341 -44.39789 12467 ft 141 kts 274°
2026-04-25 17:37 -2.43307 -44.40450 12750 ft 141 kts 274°
2026-04-25 17:37 -2.43238 -44.41752 13240 ft 145 kts 274°
2026-04-25 17:37 -2.43181 -44.42777 13576 ft 150 kts 274°
2026-04-25 17:38 -2.43124 -44.43840 13880 ft 156 kts 274°
2026-04-25 17:38 -2.43104 -44.44208 13974 ft 158 kts 274°
2026-04-25 17:38 -2.43006 -44.46072 14437 ft 165 kts 274°
2026-04-25 17:38 -2.42945 -44.47234 14721 ft 169 kts 274°
2026-04-25 17:39 -2.42882 -44.48421 15005 ft 173 kts 274°
2026-04-25 17:39 -2.42840 -44.49237 15198 ft 175 kts 274°
2026-04-25 17:39 -2.42775 -44.50462 15484 ft 178 kts 274°
2026-04-25 17:39 -2.42710 -44.51708 15773 ft 181 kts 274°
2026-04-25 17:40 -2.42644 -44.52968 16063 ft 182 kts 274°
2026-04-25 17:40 -2.42577 -44.54237 16353 ft 183 kts 274°
2026-04-25 17:40 -2.42509 -44.55513 16644 ft 184 kts 274°
2026-04-25 17:40 -2.42443 -44.56777 16934 ft 185 kts 274°
2026-04-25 17:41 -2.42375 -44.58061 17234 ft 185 kts 274°
2026-04-25 17:41 -2.42306 -44.59366 17539 ft 186 kts 274°
2026-04-25 17:41 -2.42238 -44.60658 17842 ft 186 kts 273°
2026-04-25 17:41 -2.42167 -44.61977 17903 ft 200 kts 274°
2026-04-25 17:42 -2.42089 -44.63407 17914 ft 211 kts 273°
2026-04-25 17:42 -2.42009 -44.64904 17914 ft 219 kts 273°
2026-04-25 17:42 -2.41929 -44.66446 17913 ft 224 kts 273°
2026-04-25 17:42 -2.41847 -44.68016 17912 ft 228 kts 273°
2026-04-25 17:43 -2.41764 -44.69607 17911 ft 230 kts 273°
2026-04-25 17:43 -2.41679 -44.71210 17913 ft 232 kts 273°
2026-04-25 17:43 -2.41594 -44.72820 17913 ft 232 kts 273°
2026-04-25 17:43 -2.41508 -44.74435 17912 ft 233 kts 273°
2026-04-25 17:44 -2.41423 -44.76054 17911 ft 233 kts 273°
2026-04-25 17:44 -2.41337 -44.77674 17911 ft 233 kts 273°
2026-04-25 17:44 -2.41251 -44.79296 17909 ft 234 kts 273°
2026-04-25 17:44 -2.41166 -44.80918 17909 ft 234 kts 273°
2026-04-25 17:45 -2.41080 -44.82540 17912 ft 234 kts 273°
2026-04-25 17:45 -2.41023 -44.83616 17912 ft 234 kts 273°
2026-04-25 17:45 -2.40907 -44.85790 17909 ft 234 kts 273°
2026-04-25 17:45 -2.40822 -44.87415 17910 ft 234 kts 273°
2026-04-25 17:46 -2.40542 -44.89009 17904 ft 233 kts 288°
2026-04-25 17:46 -2.40084 -44.90566 17905 ft 233 kts 287°
2026-04-25 17:46 -2.39645 -44.92130 17905 ft 234 kts 287°
2026-04-25 17:46 -2.39206 -44.93693 17909 ft 234 kts 287°
2026-04-25 17:47 -2.38764 -44.95256 17907 ft 234 kts 287°
2026-04-25 17:47 -2.38320 -44.96820 17907 ft 234 kts 287°
2026-04-25 17:47 -2.37876 -44.98386 17907 ft 234 kts 287°
2026-04-25 17:47 -2.37433 -44.99951 17907 ft 234 kts 287°
2026-04-25 17:48 -2.36547 -45.03081 17908 ft 234 kts 287°
2026-04-25 17:48 -2.36104 -45.04646 17908 ft 234 kts 287°
2026-04-25 17:48 -2.35660 -45.06213 17908 ft 234 kts 287°
2026-04-25 17:49 -2.35217 -45.07778 17908 ft 234 kts 287°
2026-04-25 17:49 -2.34774 -45.09341 17908 ft 234 kts 287°
2026-04-25 17:49 -2.34332 -45.10904 17908 ft 234 kts 287°
2026-04-25 17:49 -2.33888 -45.12468 17907 ft 234 kts 287°
2026-04-25 17:50 -2.33444 -45.14034 17908 ft 235 kts 287°
2026-04-25 17:50 -2.32998 -45.15611 17909 ft 236 kts 287°
2026-04-25 17:50 -2.32548 -45.17197 17910 ft 238 kts 287°
2026-04-25 17:50 -2.32098 -45.18792 17910 ft 239 kts 287°
2026-04-25 17:51 -2.31642 -45.20397 17907 ft 241 kts 286°
2026-04-25 17:51 -2.31185 -45.22010 17908 ft 241 kts 286°
2026-04-25 17:51 -2.30727 -45.23626 17907 ft 242 kts 286°
2026-04-25 17:51 -2.30268 -45.25247 17908 ft 242 kts 286°
2026-04-25 17:52 -2.29809 -45.26868 17908 ft 242 kts 286°
2026-04-25 17:52 -2.29505 -45.27942 17907 ft 242 kts 286°
2026-04-25 17:52 -2.28890 -45.30112 17908 ft 243 kts 286°
2026-04-25 17:52 -2.28430 -45.31735 17908 ft 243 kts 286°
2026-04-25 17:53 -2.27970 -45.33358 17909 ft 243 kts 286°
2026-04-25 17:53 -2.27510 -45.34983 17909 ft 243 kts 286°
2026-04-25 17:53 -2.27049 -45.36608 17909 ft 243 kts 286°
2026-04-25 17:53 -2.26588 -45.38233 17908 ft 243 kts 286°
2026-04-25 17:54 -2.26127 -45.39857 17907 ft 243 kts 286°
2026-04-25 17:54 -2.25668 -45.41479 17906 ft 242 kts 286°
2026-04-25 17:54 -2.25208 -45.43100 17906 ft 242 kts 286°
2026-04-25 17:54 -2.24755 -45.44697 17906 ft 242 kts 286°
2026-04-25 17:55 -2.24296 -45.46317 17909 ft 242 kts 286°
2026-04-25 17:55 -2.23836 -45.47938 17908 ft 242 kts 286°
2026-04-25 17:55 -2.23377 -45.49557 17910 ft 242 kts 286°
2026-04-25 17:55 -2.22918 -45.51177 17910 ft 242 kts 286°
2026-04-25 17:56 -2.22459 -45.52795 17907 ft 242 kts 286°
2026-04-25 17:56 -2.21999 -45.54415 17908 ft 242 kts 286°
2026-04-25 17:56 -2.21540 -45.56034 17909 ft 242 kts 286°
2026-04-25 17:56 -2.21081 -45.57653 17905 ft 242 kts 286°
2026-04-25 17:57 -2.20623 -45.59270 17909 ft 241 kts 286°
2026-04-25 17:57 -2.20165 -45.60884 17909 ft 241 kts 286°
2026-04-25 17:57 -2.19707 -45.62496 17909 ft 241 kts 286°
2026-04-25 17:57 -2.19553 -45.63041 17911 ft 241 kts 286°
2026-04-25 17:58 -2.18794 -45.65716 17906 ft 241 kts 286°
2026-04-25 17:58 -2.18338 -45.67324 17908 ft 240 kts 286°
2026-04-25 17:58 -2.17883 -45.68928 17911 ft 239 kts 286°
2026-04-25 17:58 -2.17429 -45.70526 17908 ft 239 kts 286°
2026-04-25 17:59 -2.16977 -45.72120 17910 ft 239 kts 286°
2026-04-25 17:59 -2.16524 -45.73716 17907 ft 239 kts 286°
2026-04-25 17:59 -2.16071 -45.75313 17906 ft 239 kts 286°
2026-04-25 17:59 -2.15618 -45.76910 17907 ft 239 kts 286°
2026-04-25 18:00 -2.15166 -45.78506 17903 ft 238 kts 287°
2026-04-25 18:00 -2.14714 -45.80098 17906 ft 238 kts 287°
2026-04-25 18:00 -2.14263 -45.81685 17905 ft 237 kts 287°
2026-04-25 18:00 -2.13813 -45.83269 17903 ft 237 kts 287°
2026-04-25 18:01 -2.13363 -45.84853 17906 ft 237 kts 287°
2026-04-25 18:01 -2.12915 -45.86433 17906 ft 236 kts 287°
2026-04-25 18:01 -2.12467 -45.88012 17906 ft 236 kts 287°
2026-04-25 18:01 -2.12019 -45.89592 17903 ft 236 kts 287°
2026-04-25 18:02 -2.11568 -45.91172 17904 ft 237 kts 287°
2026-04-25 18:02 -2.11125 -45.92735 17903 ft 237 kts 287°
2026-04-25 18:02 -2.10676 -45.94318 17905 ft 236 kts 286°
2026-04-25 18:02 -2.10228 -45.95896 17905 ft 236 kts 287°
2026-04-25 18:03 -2.09781 -45.97474 17905 ft 236 kts 287°
2026-04-25 18:03 -2.09333 -45.99050 17905 ft 236 kts 287°
2026-04-25 18:03 -2.08884 -46.00628 17910 ft 236 kts 287°
2026-04-25 18:03 -2.08436 -46.02206 17901 ft 236 kts 287°
2026-04-25 18:04 -2.07988 -46.03783 17899 ft 236 kts 287°
2026-04-25 18:04 -2.07541 -46.05360 17897 ft 236 kts 287°
2026-04-25 18:04 -2.07094 -46.06934 17897 ft 235 kts 287°
2026-04-25 18:04 -2.06647 -46.08509 17895 ft 235 kts 287°
2026-04-25 18:05 -2.06199 -46.10083 17898 ft 235 kts 287°
2026-04-25 18:05 -2.05753 -46.11657 17898 ft 235 kts 287°
2026-04-25 18:05 -2.05306 -46.13231 17898 ft 235 kts 287°
2026-04-25 18:05 -2.04858 -46.14805 17898 ft 235 kts 287°
2026-04-25 18:06 -2.04412 -46.16377 17898 ft 235 kts 287°
2026-04-25 18:06 -2.03965 -46.17951 17898 ft 235 kts 288°
2026-04-25 18:06 -2.03517 -46.19523 17898 ft 235 kts 288°
2026-04-25 18:06 -2.03070 -46.21097 17898 ft 235 kts 288°
2026-04-25 18:07 -2.02623 -46.22671 17898 ft 235 kts 288°
2026-04-25 18:07 -2.02176 -46.24244 17901 ft 235 kts 288°
2026-04-25 18:07 -2.01729 -46.25818 17900 ft 235 kts 288°
2026-04-25 18:07 -2.01282 -46.27392 17902 ft 235 kts 287°
2026-04-25 18:08 -2.00834 -46.28966 17898 ft 235 kts 288°
2026-04-25 18:08 -2.00387 -46.30539 17897 ft 235 kts 288°
2026-04-25 18:08 -1.99941 -46.32110 17896 ft 235 kts 288°
2026-04-25 18:08 -1.99495 -46.33680 17897 ft 235 kts 288°
2026-04-25 18:09 -1.99049 -46.35251 17896 ft 235 kts 288°
2026-04-25 18:09 -1.98602 -46.36822 17899 ft 235 kts 288°
2026-04-25 18:09 -1.98160 -46.38377 17894 ft 236 kts 288°
2026-04-25 18:09 -1.98009 -46.38909 17897 ft 236 kts 288°
2026-04-25 18:10 -1.97263 -46.41531 17902 ft 236 kts 288°
2026-04-25 18:10 -1.96814 -46.43110 17898 ft 236 kts 288°
2026-04-25 18:10 -1.96366 -46.44688 17899 ft 236 kts 288°
2026-04-25 18:10 -1.95918 -46.46266 17899 ft 236 kts 288°
2026-04-25 18:11 -1.95468 -46.47844 17900 ft 236 kts 288°
2026-04-25 18:11 -1.95019 -46.49424 17900 ft 236 kts 288°
2026-04-25 18:11 -1.94571 -46.51002 17898 ft 236 kts 288°
2026-04-25 18:11 -1.94121 -46.52582 17897 ft 236 kts 288°
2026-04-25 18:12 -1.93673 -46.54160 17894 ft 236 kts 288°
2026-04-25 18:12 -1.93224 -46.55736 17895 ft 236 kts 288°
2026-04-25 18:12 -1.92777 -46.57310 17898 ft 235 kts 288°
2026-04-25 18:12 -1.92329 -46.58884 17897 ft 235 kts 288°
2026-04-25 18:13 -1.91881 -46.60458 17899 ft 236 kts 288°
2026-04-25 18:13 -1.91433 -46.62034 17898 ft 236 kts 288°
2026-04-25 18:13 -1.90985 -46.63608 17900 ft 236 kts 288°
2026-04-25 18:14 -1.90089 -46.66758 17901 ft 236 kts 288°
2026-04-25 18:14 -1.89642 -46.68333 17900 ft 236 kts 288°
2026-04-25 18:14 -1.89193 -46.69907 17900 ft 236 kts 288°
2026-04-25 18:14 -1.88745 -46.71485 17898 ft 236 kts 288°
2026-04-25 18:15 -1.88297 -46.73060 17902 ft 236 kts 288°
2026-04-25 18:15 -1.87849 -46.74634 17901 ft 236 kts 288°
2026-04-25 18:15 -1.87401 -46.76210 17903 ft 236 kts 288°
2026-04-25 18:15 -1.86952 -46.77786 17901 ft 236 kts 288°
2026-04-25 18:16 -1.86504 -46.79361 17898 ft 236 kts 288°
2026-04-25 18:16 -1.86057 -46.80936 17897 ft 236 kts 288°
2026-04-25 18:16 -1.85160 -46.84086 17897 ft 236 kts 288°
2026-04-25 18:17 -1.84712 -46.85661 17900 ft 236 kts 288°
2026-04-25 18:17 -1.84263 -46.87235 17900 ft 236 kts 288°
2026-04-25 18:17 -1.83815 -46.88809 17899 ft 236 kts 288°
2026-04-25 18:17 -1.83367 -46.90385 17898 ft 236 kts 288°
2026-04-25 18:18 -1.82919 -46.91959 17898 ft 236 kts 288°
2026-04-25 18:18 -1.82477 -46.93513 17900 ft 235 kts 288°
2026-04-25 18:18 -1.82029 -46.95088 17899 ft 236 kts 288°
2026-04-25 18:18 -1.81581 -46.96662 17897 ft 235 kts 288°
2026-04-25 18:19 -1.81133 -46.98236 17897 ft 236 kts 288°
2026-04-25 18:19 -1.80685 -46.99812 17896 ft 236 kts 288°
2026-04-25 18:19 -1.80236 -47.01389 17897 ft 236 kts 288°
2026-04-25 18:19 -1.79786 -47.02967 17900 ft 236 kts 288°
2026-04-25 18:20 -1.79337 -47.04545 17899 ft 236 kts 288°
2026-04-25 18:20 -1.78888 -47.06124 17895 ft 236 kts 288°
2026-04-25 18:20 -1.78438 -47.07703 17895 ft 236 kts 288°
2026-04-25 18:20 -1.77988 -47.09280 17900 ft 236 kts 288°
2026-04-25 18:21 -1.77539 -47.10858 17897 ft 236 kts 288°
2026-04-25 18:21 -1.77090 -47.12437 17895 ft 236 kts 288°
2026-04-25 18:21 -1.76640 -47.14016 17895 ft 236 kts 288°
2026-04-25 18:21 -1.76190 -47.15593 17896 ft 236 kts 288°
2026-04-25 18:22 -1.75741 -47.17173 17897 ft 236 kts 288°
2026-04-25 18:22 -1.75589 -47.17706 17896 ft 236 kts 288°
2026-04-25 18:22 -1.74841 -47.20332 17899 ft 236 kts 288°
2026-04-25 18:22 -1.74391 -47.21912 17899 ft 236 kts 288°
2026-04-25 18:23 -1.73941 -47.23492 17901 ft 236 kts 288°
2026-04-25 18:23 -1.73491 -47.25073 17901 ft 236 kts 288°
2026-04-25 18:23 -1.73041 -47.26654 17899 ft 237 kts 288°
2026-04-25 18:23 -1.72591 -47.28234 17899 ft 237 kts 288°
2026-04-25 18:24 -1.72147 -47.29795 17899 ft 237 kts 288°
2026-04-25 18:24 -1.71697 -47.31376 17898 ft 237 kts 288°
2026-04-25 18:24 -1.71246 -47.32956 17901 ft 237 kts 288°
2026-04-25 18:24 -1.70796 -47.34538 17898 ft 237 kts 288°
2026-04-25 18:25 -1.70345 -47.36120 17899 ft 237 kts 288°
2026-04-25 18:25 -1.69895 -47.37701 17901 ft 237 kts 288°
2026-04-25 18:25 -1.69444 -47.39282 17898 ft 237 kts 288°
2026-04-25 18:25 -1.68993 -47.40863 17895 ft 237 kts 288°
2026-04-25 18:26 -1.68543 -47.42445 17897 ft 237 kts 288°
2026-04-25 18:26 -1.68093 -47.44026 17897 ft 236 kts 288°
2026-04-25 18:26 -1.67642 -47.45607 17895 ft 237 kts 288°
2026-04-25 18:26 -1.67192 -47.47189 17895 ft 237 kts 288°
2026-04-25 18:27 -1.66740 -47.48771 17895 ft 237 kts 288°
2026-04-25 18:27 -1.66442 -47.49820 17897 ft 237 kts 288°
2026-04-25 18:27 -1.65838 -47.51938 17894 ft 237 kts 288°
2026-04-25 18:27 -1.65386 -47.53523 17896 ft 237 kts 288°
2026-04-25 18:28 -1.64935 -47.55106 17896 ft 237 kts 288°
2026-04-25 18:28 -1.64637 -47.56154 17898 ft 237 kts 288°
2026-04-25 18:28 -1.64185 -47.57737 17897 ft 237 kts 288°
2026-04-25 18:29 -1.63283 -47.60901 17892 ft 237 kts 288°
2026-04-25 18:29 -1.62832 -47.62484 17893 ft 237 kts 288°
2026-04-25 18:30 -1.61479 -47.67233 17893 ft 237 kts 288°
2026-04-25 18:30 -1.61027 -47.68816 17896 ft 237 kts 288°
2026-04-25 18:30 -1.60575 -47.70400 17893 ft 237 kts 288°
2026-04-25 18:30 -1.60124 -47.71984 17893 ft 237 kts 288°
2026-04-25 18:31 -1.59673 -47.73568 17895 ft 237 kts 288°
2026-04-25 18:31 -1.59221 -47.75152 17894 ft 237 kts 288°
2026-04-25 18:31 -1.58770 -47.76736 17894 ft 237 kts 288°
2026-04-25 18:31 -1.58318 -47.78321 17895 ft 237 kts 288°
2026-04-25 18:32 -1.57866 -47.79905 17896 ft 237 kts 288°
2026-04-25 18:32 -1.57414 -47.81489 17899 ft 237 kts 288°
2026-04-25 18:32 -1.56963 -47.83074 17900 ft 237 kts 288°
2026-04-25 18:32 -1.56510 -47.84660 17896 ft 237 kts 288°
2026-04-25 18:33 -1.56063 -47.86224 17893 ft 237 kts 288°
2026-04-25 18:33 -1.55610 -47.87809 17895 ft 237 kts 288°
2026-04-25 18:33 -1.55157 -47.89393 17893 ft 237 kts 288°
2026-04-25 18:33 -1.54704 -47.90979 17895 ft 237 kts 288°
2026-04-25 18:34 -1.54251 -47.92564 17890 ft 237 kts 288°
2026-04-25 18:34 -1.53798 -47.94149 17892 ft 237 kts 288°
2026-04-25 18:34 -1.53345 -47.95734 17890 ft 237 kts 288°
2026-04-25 18:34 -1.52891 -47.97319 17892 ft 237 kts 288°
2026-04-25 18:35 -1.52438 -47.98906 17890 ft 237 kts 288°
2026-04-25 18:35 -1.51984 -48.00491 17892 ft 237 kts 288°
2026-04-25 18:35 -1.51532 -48.02075 17890 ft 237 kts 288°
2026-04-25 18:35 -1.51078 -48.03661 17893 ft 237 kts 288°
2026-04-25 18:36 -1.50625 -48.05245 17896 ft 237 kts 288°
2026-04-25 18:36 -1.50172 -48.06829 17899 ft 237 kts 288°
2026-04-25 18:36 -1.49719 -48.08416 17896 ft 237 kts 288°
2026-04-25 18:36 -1.49266 -48.10001 17899 ft 237 kts 288°
2026-04-25 18:37 -1.48812 -48.11585 17894 ft 237 kts 288°
2026-04-25 18:37 -1.48359 -48.13171 17894 ft 237 kts 288°
2026-04-25 18:37 -1.47906 -48.14757 17894 ft 237 kts 288°
2026-04-25 18:37 -1.47452 -48.16341 17890 ft 237 kts 288°
2026-04-25 18:38 -1.46999 -48.17926 17889 ft 237 kts 288°
2026-04-25 18:38 -1.46546 -48.19512 17887 ft 237 kts 288°
2026-04-25 18:38 -1.46092 -48.21097 17890 ft 237 kts 288°
2026-04-25 18:38 -1.45639 -48.22682 17887 ft 237 kts 288°
2026-04-25 18:39 -1.45185 -48.24268 17892 ft 237 kts 288°
2026-04-25 18:39 -1.44731 -48.25854 17890 ft 238 kts 288°
2026-04-25 18:39 -1.44277 -48.27443 17892 ft 238 kts 288°
2026-04-25 18:39 -1.43822 -48.29034 17892 ft 238 kts 288°
2026-04-25 18:40 -1.43367 -48.30625 17891 ft 238 kts 288°
2026-04-25 18:40 -1.42912 -48.32215 17892 ft 238 kts 288°
2026-04-25 18:40 -1.42457 -48.33807 17892 ft 238 kts 288°
2026-04-25 18:40 -1.42003 -48.35394 17894 ft 237 kts 288°
2026-04-25 18:41 -1.41550 -48.36976 17896 ft 237 kts 288°
2026-04-25 18:41 -1.41098 -48.38557 17895 ft 237 kts 288°
2026-04-25 18:41 -1.40646 -48.40137 17895 ft 237 kts 288°
2026-04-25 18:41 -1.40193 -48.41717 17913 ft 236 kts 288°
2026-04-25 18:42 -1.39741 -48.43297 17909 ft 236 kts 288°
2026-04-25 18:42 -1.39442 -48.44342 17911 ft 236 kts 288°
2026-04-25 18:42 -1.38824 -48.46443 17913 ft 235 kts 292°
2026-04-25 18:42 -1.38009 -48.47831 17907 ft 231 kts 312°
2026-04-25 18:43 -1.36834 -48.48869 17908 ft 228 kts 329°
2026-04-25 18:43 -1.35487 -48.49705 17911 ft 228 kts 330°
2026-04-25 18:43 -1.34144 -48.50547 17910 ft 228 kts 330°
2026-04-25 18:43 -1.32804 -48.51390 17914 ft 228 kts 330°
2026-04-25 18:44 -1.31460 -48.52233 17914 ft 228 kts 330°
2026-04-25 18:44 -1.30117 -48.53076 17913 ft 228 kts 330°
2026-04-25 18:44 -1.28772 -48.53918 17910 ft 228 kts 330°
2026-04-25 18:44 -1.27428 -48.54761 17908 ft 228 kts 330°
2026-04-25 18:45 -1.26086 -48.55604 17909 ft 228 kts 330°
2026-04-25 18:45 -1.24742 -48.56446 17905 ft 228 kts 330°
2026-04-25 18:45 -1.23399 -48.57288 17904 ft 228 kts 330°
2026-04-25 18:45 -1.22057 -48.58130 17903 ft 228 kts 330°
2026-04-25 18:46 -1.20713 -48.58972 17906 ft 228 kts 330°
2026-04-25 18:46 -1.19369 -48.59815 17901 ft 228 kts 330°
2026-04-25 18:46 -1.18026 -48.60657 17900 ft 228 kts 330°
2026-04-25 18:46 -1.16682 -48.61500 17901 ft 228 kts 330°
2026-04-25 18:47 -1.15339 -48.62343 17900 ft 228 kts 330°
2026-04-25 18:47 -1.13995 -48.63185 17898 ft 228 kts 330°
2026-04-25 18:47 -1.12648 -48.64029 17896 ft 229 kts 330°
2026-04-25 18:47 -1.11300 -48.64875 17895 ft 229 kts 330°
2026-04-25 18:48 -1.09950 -48.65722 17897 ft 229 kts 330°
2026-04-25 18:48 -1.08600 -48.66568 17894 ft 229 kts 330°
2026-04-25 18:48 -1.07250 -48.67415 17894 ft 229 kts 330°
2026-04-25 18:48 -1.05900 -48.68262 17893 ft 229 kts 330°
2026-04-25 18:49 -1.04551 -48.69108 17891 ft 229 kts 330°
2026-04-25 18:49 -1.03198 -48.69956 17894 ft 229 kts 330°
2026-04-25 18:49 -1.01865 -48.70792 17894 ft 229 kts 330°
2026-04-25 18:49 -1.00514 -48.71639 17891 ft 229 kts 330°
2026-04-25 18:50 -0.99163 -48.72486 17891 ft 229 kts 330°
2026-04-25 18:50 -0.97812 -48.73334 17890 ft 229 kts 330°
2026-04-25 18:50 -0.96460 -48.74181 17892 ft 229 kts 330°
2026-04-25 18:50 -0.95110 -48.75027 17891 ft 229 kts 330°
2026-04-25 18:51 -0.93761 -48.75873 17893 ft 229 kts 330°
2026-04-25 18:51 -0.92848 -48.76445 17894 ft 229 kts 330°
2026-04-25 18:51 -0.91060 -48.77567 17894 ft 229 kts 330°
2026-04-25 18:51 -0.89708 -48.78414 17894 ft 229 kts 330°
2026-04-25 18:52 -0.88358 -48.79261 17894 ft 229 kts 330°
2026-04-25 18:52 -0.87005 -48.80109 17894 ft 229 kts 330°
2026-04-25 18:52 -0.85654 -48.80957 17893 ft 230 kts 330°
2026-04-25 18:52 -0.84298 -48.81806 17894 ft 230 kts 330°
2026-04-25 18:53 -0.82941 -48.82657 17887 ft 231 kts 330°
2026-04-25 18:53 -0.81581 -48.83510 17890 ft 231 kts 330°
2026-04-25 18:53 -0.80220 -48.84363 17891 ft 231 kts 330°
2026-04-25 18:53 -0.78858 -48.85217 17890 ft 231 kts 330°
2026-04-25 18:54 -0.76135 -48.86925 17890 ft 231 kts 330°
2026-04-25 18:54 -0.74774 -48.87777 17889 ft 231 kts 330°
2026-04-25 18:54 -0.73415 -48.88630 17888 ft 231 kts 330°
2026-04-25 18:55 -0.72053 -48.89483 17891 ft 231 kts 330°
2026-04-25 18:55 -0.70693 -48.90336 17891 ft 231 kts 330°
2026-04-25 18:55 -0.69331 -48.91190 17891 ft 231 kts 330°
2026-04-25 18:55 -0.67968 -48.92044 17889 ft 231 kts 330°
2026-04-25 18:56 -0.66606 -48.92898 17886 ft 231 kts 330°
2026-04-25 18:56 -0.65244 -48.93753 17886 ft 231 kts 330°
2026-04-25 18:56 -0.63882 -48.94606 17887 ft 231 kts 330°
2026-04-25 18:56 -0.62538 -48.95449 17887 ft 231 kts 330°
2026-04-25 18:57 -0.61175 -48.96303 17887 ft 231 kts 330°
2026-04-25 18:57 -0.59812 -48.97157 17886 ft 231 kts 330°
2026-04-25 18:57 -0.58449 -48.98012 17886 ft 231 kts 330°
2026-04-25 18:57 -0.57989 -48.98300 17886 ft 231 kts 330°
2026-04-25 18:58 -0.55721 -48.99722 17883 ft 232 kts 330°
2026-04-25 18:58 -0.52987 -49.01437 17884 ft 232 kts 330°
2026-04-25 18:58 -0.51617 -49.02295 17882 ft 232 kts 330°
2026-04-25 18:59 -0.48879 -49.04012 17884 ft 232 kts 330°
2026-04-25 18:59 -0.46139 -49.05729 17889 ft 232 kts 330°
2026-04-25 19:00 -0.43400 -49.07446 17888 ft 232 kts 330°
2026-04-25 19:00 -0.42030 -49.08305 17890 ft 232 kts 330°
2026-04-25 19:01 -0.39291 -49.10023 17886 ft 233 kts 330°
2026-04-25 19:01 -0.37920 -49.10882 17887 ft 233 kts 330°
2026-04-25 19:01 -0.36548 -49.11742 17887 ft 233 kts 330°
2026-04-25 19:01 -0.35176 -49.12602 17887 ft 233 kts 330°
2026-04-25 19:02 -0.32435 -49.14321 17887 ft 233 kts 330°
2026-04-25 19:02 -0.31064 -49.15179 17887 ft 233 kts 330°
2026-04-25 19:02 -0.29694 -49.16038 17887 ft 233 kts 330°
2026-04-25 19:03 -0.27880 -49.17176 17886 ft 232 kts 330°
2026-04-25 19:03 -0.25585 -49.18614 17886 ft 232 kts 330°
2026-04-25 19:03 -0.24215 -49.19472 17887 ft 232 kts 330°
2026-04-25 19:04 -0.21474 -49.21190 17889 ft 233 kts 330°
2026-04-25 19:04 -0.20123 -49.22037 17889 ft 233 kts 330°
2026-04-25 19:05 -0.17364 -49.23768 17886 ft 232 kts 330°
2026-04-25 19:05 -0.14643 -49.25473 17886 ft 232 kts 330°
2026-04-25 19:05 -0.13274 -49.26331 17886 ft 232 kts 330°
2026-04-25 19:06 -0.11904 -49.27190 17883 ft 232 kts 330°
2026-04-25 19:06 -0.09164 -49.28907 17883 ft 232 kts 330°
2026-04-25 19:06 -0.07795 -49.29765 17883 ft 232 kts 330°
2026-04-25 19:07 -0.05055 -49.31483 17884 ft 232 kts 330°
2026-04-25 19:07 -0.03687 -49.32341 17884 ft 232 kts 330°
2026-04-25 19:08 -0.00951 -49.34055 17890 ft 232 kts 330°
2026-04-25 19:08 0.00416 -49.34912 17889 ft 232 kts 330°
2026-04-25 19:09 0.04518 -49.37484 17890 ft 232 kts 330°
2026-04-25 19:09 0.04980 -49.37774 17890 ft 232 kts 330°
2026-04-25 19:09 0.08623 -49.40056 17889 ft 232 kts 330°
2026-04-25 19:10 0.09989 -49.40913 17886 ft 232 kts 331°
2026-04-25 19:10 0.11357 -49.41770 17887 ft 232 kts 331°
2026-04-25 19:10 0.12724 -49.42627 17889 ft 232 kts 331°
2026-04-25 19:10 0.14089 -49.43483 17889 ft 232 kts 331°
2026-04-25 19:11 0.15456 -49.44340 17886 ft 232 kts 330°
2026-04-25 19:11 0.16821 -49.45196 17886 ft 232 kts 331°
2026-04-25 19:11 0.18188 -49.46053 17886 ft 232 kts 330°
2026-04-25 19:11 0.19554 -49.46908 17886 ft 232 kts 330°
2026-04-25 19:12 0.20921 -49.47766 17889 ft 232 kts 331°
2026-04-25 19:12 0.22287 -49.48622 17889 ft 232 kts 330°
2026-04-25 19:12 0.23654 -49.49479 17892 ft 232 kts 330°
2026-04-25 19:12 0.25021 -49.50336 17892 ft 232 kts 331°
2026-04-25 19:13 0.26387 -49.51192 17892 ft 232 kts 330°
2026-04-25 19:13 0.27753 -49.52048 17892 ft 232 kts 331°
2026-04-25 19:13 0.29119 -49.52904 17889 ft 232 kts 331°
2026-04-25 19:13 0.30484 -49.53761 17889 ft 232 kts 331°
2026-04-25 19:14 0.31850 -49.54616 17886 ft 232 kts 331°
2026-04-25 19:14 0.32294 -49.54894 17886 ft 232 kts 331°
2026-04-25 19:14 0.34565 -49.56318 17886 ft 232 kts 331°
2026-04-25 19:14 0.35932 -49.57175 17886 ft 232 kts 331°
2026-04-25 19:15 0.37299 -49.58032 17889 ft 232 kts 331°
2026-04-25 19:15 0.38666 -49.58889 17889 ft 232 kts 331°
2026-04-25 19:15 0.40032 -49.59746 17889 ft 232 kts 331°
2026-04-25 19:15 0.41398 -49.60602 17889 ft 232 kts 331°
2026-04-25 19:16 0.42764 -49.61458 17889 ft 232 kts 331°
2026-04-25 19:16 0.44129 -49.62314 17889 ft 232 kts 331°
2026-04-25 19:16 0.45495 -49.63170 17889 ft 232 kts 331°
2026-04-25 19:16 0.46398 -49.63736 17889 ft 232 kts 331°
2026-04-25 19:17 0.47764 -49.64592 17892 ft 232 kts 331°
2026-04-25 19:17 0.49130 -49.65448 17892 ft 232 kts 331°
2026-04-25 19:17 0.50495 -49.66305 17892 ft 232 kts 331°
2026-04-25 19:17 0.51861 -49.67160 17892 ft 232 kts 331°
2026-04-25 19:18 0.53226 -49.68016 17892 ft 232 kts 331°
2026-04-25 19:18 0.54590 -49.68872 17892 ft 232 kts 331°
2026-04-25 19:18 0.55956 -49.69727 17892 ft 232 kts 331°
2026-04-25 19:18 0.57320 -49.70583 17892 ft 232 kts 331°
2026-04-25 19:19 0.58685 -49.71439 17889 ft 232 kts 330°
2026-04-25 19:19 0.60051 -49.72295 17888 ft 232 kts 330°
2026-04-25 19:19 0.61419 -49.73153 17888 ft 232 kts 330°
2026-04-25 19:19 0.62325 -49.73720 17889 ft 232 kts 330°
2026-04-25 19:20 0.64156 -49.74868 17889 ft 232 kts 331°
2026-04-25 19:20 0.65524 -49.75726 17889 ft 232 kts 331°
2026-04-25 19:20 0.66892 -49.76584 17889 ft 232 kts 331°
2026-04-25 19:20 0.68262 -49.77442 17889 ft 232 kts 330°
2026-04-25 19:21 0.69630 -49.78301 17886 ft 232 kts 331°
2026-04-25 19:21 0.72368 -49.80017 17883 ft 232 kts 330°
2026-04-25 19:21 0.73737 -49.80875 17883 ft 232 kts 331°
2026-04-25 19:22 0.75107 -49.81734 17880 ft 232 kts 330°
2026-04-25 19:22 0.76475 -49.82592 17880 ft 232 kts 331°
2026-04-25 19:22 0.79215 -49.84310 17880 ft 232 kts 330°
2026-04-25 19:23 0.80584 -49.85168 17887 ft 232 kts 331°
2026-04-25 19:23 0.83323 -49.86885 17886 ft 232 kts 330°
2026-04-25 19:23 0.84692 -49.87744 17886 ft 232 kts 330°
2026-04-25 19:24 0.86062 -49.88603 17887 ft 232 kts 330°
2026-04-25 19:24 0.87433 -49.89462 17887 ft 232 kts 330°
2026-04-25 19:24 0.90174 -49.91181 17886 ft 233 kts 330°
2026-04-25 19:25 0.92919 -49.92902 17883 ft 233 kts 330°
2026-04-25 19:25 0.94291 -49.93762 17883 ft 233 kts 330°
2026-04-25 19:25 0.95662 -49.94622 17883 ft 233 kts 330°
2026-04-25 19:26 0.97035 -49.95483 17883 ft 233 kts 330°
2026-04-25 19:26 0.98407 -49.96343 17883 ft 233 kts 330°
2026-04-25 19:26 0.99780 -49.97204 17883 ft 233 kts 330°
2026-04-25 19:26 1.01153 -49.98065 17883 ft 233 kts 330°
2026-04-25 19:27 1.02524 -49.98925 17883 ft 233 kts 330°
2026-04-25 19:27 1.03434 -49.99495 17884 ft 233 kts 330°
2026-04-25 19:27 1.05271 -50.00647 17883 ft 233 kts 330°
2026-04-25 19:27 1.06643 -50.01508 17883 ft 233 kts 330°
2026-04-25 19:28 1.08014 -50.02367 17884 ft 233 kts 330°
2026-04-25 19:28 1.09387 -50.03228 17884 ft 233 kts 330°
2026-04-25 19:28 1.10759 -50.04089 17883 ft 233 kts 330°
2026-04-25 19:28 1.12131 -50.04949 17883 ft 233 kts 330°
2026-04-25 19:29 1.13502 -50.05810 17883 ft 233 kts 330°
2026-04-25 19:29 1.14874 -50.06670 17883 ft 233 kts 330°
2026-04-25 19:29 1.16227 -50.07518 17883 ft 233 kts 330°
2026-04-25 19:29 1.17619 -50.08391 17880 ft 233 kts 330°
2026-04-25 19:30 1.18973 -50.09240 17880 ft 233 kts 330°
2026-04-25 19:30 1.20349 -50.10103 17880 ft 233 kts 330°
2026-04-25 19:30 1.21725 -50.10966 17880 ft 234 kts 330°
2026-04-25 19:30 1.23101 -50.11829 17880 ft 234 kts 330°
2026-04-25 19:31 1.24477 -50.12692 17881 ft 234 kts 330°
2026-04-25 19:31 1.25854 -50.13556 17880 ft 234 kts 330°
2026-04-25 19:31 1.27232 -50.14420 17881 ft 234 kts 330°
2026-04-25 19:31 1.28609 -50.15284 17880 ft 234 kts 330°
2026-04-25 19:32 1.29987 -50.16148 17881 ft 234 kts 330°
2026-04-25 19:32 1.31364 -50.17011 17881 ft 234 kts 330°
2026-04-25 19:32 1.32740 -50.17875 17881 ft 234 kts 330°
2026-04-25 19:32 1.33671 -50.18459 17881 ft 234 kts 330°
2026-04-25 19:33 1.35494 -50.19602 17878 ft 234 kts 330°
2026-04-25 19:33 1.36871 -50.20466 17878 ft 234 kts 330°
2026-04-25 19:33 1.38249 -50.21330 17878 ft 234 kts 330°
2026-04-25 19:33 1.39627 -50.22195 17878 ft 234 kts 330°
2026-04-25 19:34 1.41004 -50.23058 17875 ft 234 kts 330°
2026-04-25 19:34 1.42381 -50.23922 17875 ft 234 kts 330°
2026-04-25 19:34 1.43758 -50.24786 17875 ft 234 kts 330°
2026-04-25 19:34 1.45136 -50.25651 17875 ft 234 kts 330°
2026-04-25 19:35 1.46514 -50.26515 17878 ft 234 kts 330°
2026-04-25 19:35 1.47894 -50.27381 17878 ft 234 kts 330°
2026-04-25 19:35 1.49274 -50.28246 17878 ft 235 kts 330°
2026-04-25 19:35 1.50657 -50.29114 17877 ft 235 kts 330°
2026-04-25 19:36 1.52040 -50.29982 17878 ft 235 kts 330°
2026-04-25 19:36 1.53424 -50.30849 17877 ft 235 kts 330°
2026-04-25 19:36 1.54807 -50.31718 17878 ft 235 kts 330°
2026-04-25 19:36 1.56191 -50.32586 17878 ft 235 kts 330°
2026-04-25 19:37 1.57576 -50.33454 17877 ft 235 kts 330°
2026-04-25 19:37 1.58960 -50.34323 17878 ft 235 kts 330°
2026-04-25 19:37 1.60344 -50.35191 17878 ft 235 kts 330°
2026-04-25 19:37 1.61727 -50.36059 17878 ft 235 kts 330°
2026-04-25 19:38 1.63110 -50.36927 17878 ft 235 kts 330°
2026-04-25 19:38 1.64493 -50.37794 17878 ft 235 kts 330°
2026-04-25 19:38 1.65877 -50.38663 17878 ft 235 kts 330°
2026-04-25 19:38 1.67241 -50.39520 17878 ft 235 kts 330°
2026-04-25 19:39 1.68625 -50.40388 17877 ft 235 kts 330°
2026-04-25 19:39 1.70007 -50.41255 17876 ft 235 kts 330°
2026-04-25 19:39 1.71389 -50.42122 17876 ft 235 kts 330°
2026-04-25 19:39 1.72771 -50.42989 17877 ft 235 kts 330°
2026-04-25 19:40 1.74154 -50.43857 17873 ft 235 kts 330°
2026-04-25 19:40 1.75536 -50.44725 17873 ft 235 kts 330°
2026-04-25 19:40 1.76919 -50.45592 17873 ft 235 kts 330°
2026-04-25 19:40 1.78302 -50.46460 17873 ft 235 kts 330°
2026-04-25 19:41 1.79687 -50.47329 17873 ft 235 kts 330°
2026-04-25 19:41 1.81072 -50.48198 17874 ft 235 kts 330°
2026-04-25 19:41 1.82459 -50.49068 17873 ft 235 kts 330°
2026-04-25 19:41 1.82928 -50.49363 17873 ft 235 kts 330°
2026-04-25 19:42 1.85233 -50.50809 17877 ft 236 kts 330°
2026-04-25 19:42 1.86621 -50.51681 17877 ft 236 kts 330°
2026-04-25 19:42 1.88010 -50.52552 17877 ft 236 kts 330°
2026-04-25 19:42 1.89398 -50.53424 17877 ft 236 kts 330°
2026-04-25 19:43 1.90786 -50.54295 17878 ft 236 kts 330°
2026-04-25 19:43 1.92176 -50.55167 17877 ft 236 kts 330°
2026-04-25 19:43 1.93565 -50.56039 17878 ft 236 kts 330°
2026-04-25 19:43 1.94954 -50.56911 17877 ft 236 kts 330°
2026-04-25 19:44 1.96344 -50.57783 17878 ft 236 kts 330°
2026-04-25 19:44 1.97733 -50.58655 17877 ft 236 kts 330°
2026-04-25 19:44 1.99121 -50.59527 17877 ft 236 kts 330°
2026-04-25 19:44 2.00504 -50.60405 17877 ft 236 kts 330°
2026-04-25 19:45 2.01887 -50.61284 17877 ft 236 kts 330°
2026-04-25 19:45 2.03270 -50.62162 17877 ft 236 kts 330°
2026-04-25 19:45 2.04653 -50.63039 17877 ft 235 kts 330°
2026-04-25 19:45 2.06037 -50.63917 17878 ft 236 kts 330°
2026-04-25 19:46 2.07422 -50.64795 17878 ft 236 kts 330°
2026-04-25 19:46 2.08809 -50.65675 17878 ft 237 kts 330°
2026-04-25 19:46 2.10201 -50.66558 17878 ft 237 kts 330°
2026-04-25 19:46 2.11595 -50.67443 17878 ft 237 kts 330°
2026-04-25 19:47 2.12988 -50.68327 17881 ft 237 kts 330°
2026-04-25 19:47 2.14382 -50.69211 17881 ft 237 kts 330°
2026-04-25 19:47 2.15776 -50.70096 17881 ft 237 kts 330°
2026-04-25 19:47 2.17170 -50.70981 17881 ft 237 kts 330°
2026-04-25 19:48 2.18564 -50.71865 17884 ft 237 kts 330°
2026-04-25 19:48 2.19961 -50.72751 17884 ft 238 kts 330°
2026-04-25 19:48 2.21339 -50.73626 17885 ft 238 kts 330°
2026-04-25 19:48 2.22736 -50.74513 17884 ft 238 kts 330°
2026-04-25 19:49 2.24131 -50.75399 17881 ft 238 kts 330°
2026-04-25 19:49 2.24601 -50.75702 17881 ft 237 kts 330°
2026-04-25 19:49 2.26924 -50.77164 17881 ft 237 kts 330°
2026-04-25 19:49 2.28324 -50.78040 17881 ft 238 kts 330°
2026-04-25 19:50 2.31114 -50.79818 17878 ft 238 kts 329°
2026-04-25 19:50 2.32498 -50.80725 17878 ft 238 kts 329°
2026-04-25 19:50 2.33889 -50.81625 17878 ft 238 kts 330°
2026-04-25 19:51 2.35281 -50.82521 17881 ft 238 kts 330°
2026-04-25 19:51 2.36672 -50.83419 17882 ft 238 kts 329°
2026-04-25 19:51 2.38063 -50.84317 17883 ft 238 kts 330°
2026-04-25 19:51 2.39457 -50.85218 17883 ft 239 kts 330°
2026-04-25 19:52 2.40851 -50.86118 17887 ft 239 kts 330°
2026-04-25 19:52 2.42247 -50.87019 17887 ft 239 kts 330°
2026-04-25 19:52 2.43646 -50.87923 17884 ft 239 kts 330°
2026-04-25 19:52 2.45044 -50.88826 17884 ft 239 kts 330°
2026-04-25 19:53 2.46442 -50.89729 17884 ft 239 kts 330°
2026-04-25 19:53 2.47841 -50.90633 17884 ft 239 kts 330°
2026-04-25 19:53 2.49238 -50.91535 17887 ft 239 kts 330°
2026-04-25 19:53 2.50634 -50.92437 17887 ft 239 kts 330°
2026-04-25 19:54 2.52030 -50.93339 17884 ft 239 kts 330°
2026-04-25 19:54 2.53408 -50.94229 17884 ft 239 kts 330°
2026-04-25 19:54 2.54805 -50.95131 17884 ft 239 kts 330°
2026-04-25 19:54 2.55277 -50.95437 17885 ft 239 kts 330°
2026-04-25 19:55 2.57601 -50.96938 17885 ft 239 kts 330°
2026-04-25 19:55 2.59000 -50.97841 17881 ft 239 kts 330°
2026-04-25 19:55 2.60398 -50.98745 17881 ft 239 kts 330°
2026-04-25 19:55 2.61795 -50.99647 17882 ft 239 kts 330°
2026-04-25 19:56 2.63191 -51.00549 17881 ft 239 kts 330°
2026-04-25 19:56 2.64588 -51.01451 17881 ft 239 kts 330°
2026-04-25 19:56 2.65985 -51.02354 17881 ft 239 kts 330°
2026-04-25 19:56 2.67383 -51.03257 17881 ft 239 kts 330°
2026-04-25 19:57 2.68780 -51.04161 17881 ft 239 kts 330°
2026-04-25 19:57 2.70178 -51.05064 17882 ft 239 kts 330°
2026-04-25 19:57 2.71577 -51.05968 17881 ft 239 kts 330°
2026-04-25 19:57 2.72975 -51.06871 17882 ft 239 kts 330°
2026-04-25 19:58 2.74373 -51.07774 17881 ft 239 kts 330°
2026-04-25 19:58 2.75772 -51.08678 17882 ft 239 kts 330°
2026-04-25 19:58 2.77171 -51.09583 17882 ft 240 kts 330°
2026-04-25 19:58 2.78570 -51.10487 17882 ft 239 kts 330°
2026-04-25 19:59 2.79969 -51.11392 17882 ft 239 kts 330°
2026-04-25 19:59 2.81367 -51.12295 17881 ft 239 kts 330°
2026-04-25 19:59 2.82764 -51.13198 17881 ft 239 kts 330°
2026-04-25 19:59 2.84161 -51.14101 17881 ft 239 kts 330°
2026-04-25 20:00 2.85557 -51.15003 17886 ft 239 kts 330°
2026-04-25 20:00 2.86029 -51.15308 17887 ft 239 kts 330°
2026-04-25 20:00 2.88351 -51.16809 17884 ft 239 kts 330°
2026-04-25 20:00 2.89749 -51.17713 17883 ft 239 kts 330°
2026-04-25 20:01 2.92544 -51.19520 17884 ft 239 kts 330°
2026-04-25 20:01 2.93942 -51.20424 17884 ft 239 kts 330°
2026-04-25 20:01 2.95339 -51.21327 17884 ft 239 kts 330°
2026-04-25 20:02 2.96736 -51.22230 17887 ft 239 kts 330°
2026-04-25 20:02 2.98134 -51.23134 17884 ft 240 kts 330°
2026-04-25 20:02 2.99535 -51.24040 17884 ft 240 kts 330°
2026-04-25 20:02 3.00937 -51.24946 17884 ft 240 kts 330°
2026-04-25 20:03 3.02339 -51.25853 17885 ft 240 kts 330°
2026-04-25 20:03 3.03743 -51.26761 17884 ft 240 kts 330°
2026-04-25 20:03 3.04672 -51.27362 17884 ft 240 kts 330°
2026-04-25 20:03 3.06532 -51.28565 17884 ft 240 kts 330°
2026-04-25 20:04 3.07936 -51.29472 17887 ft 240 kts 330°
2026-04-25 20:04 3.09339 -51.30380 17887 ft 240 kts 330°
2026-04-25 20:04 3.10743 -51.31288 17887 ft 240 kts 330°
2026-04-25 20:04 3.12146 -51.32195 17887 ft 240 kts 330°
2026-04-25 20:05 3.13550 -51.33104 17884 ft 240 kts 330°
2026-04-25 20:05 3.14954 -51.34012 17887 ft 240 kts 330°
2026-04-25 20:05 3.15884 -51.34614 17885 ft 240 kts 330°
2026-04-25 20:05 3.17761 -51.35828 17884 ft 240 kts 330°
2026-04-25 20:06 3.18692 -51.36430 17884 ft 240 kts 330°
2026-04-25 20:06 3.20094 -51.37336 17884 ft 240 kts 330°
2026-04-25 20:06 3.21496 -51.38243 17884 ft 240 kts 330°
2026-04-25 20:06 3.22899 -51.39151 17879 ft 240 kts 330°
2026-04-25 20:07 3.24302 -51.40059 17879 ft 240 kts 330°
2026-04-25 20:07 3.25705 -51.40966 17879 ft 240 kts 330°
2026-04-25 20:07 3.27107 -51.41874 17879 ft 240 kts 330°
2026-04-25 20:07 3.28513 -51.42783 17880 ft 241 kts 330°
2026-04-25 20:08 3.29918 -51.43692 17879 ft 241 kts 330°
2026-04-25 20:08 3.31325 -51.44603 17879 ft 241 kts 330°
2026-04-25 20:08 3.32732 -51.45514 17879 ft 241 kts 330°
2026-04-25 20:08 3.34141 -51.46425 17879 ft 241 kts 330°
2026-04-25 20:09 3.35548 -51.47336 17880 ft 241 kts 330°
2026-04-25 20:09 3.36957 -51.48248 17880 ft 241 kts 330°
2026-04-25 20:09 3.38366 -51.49159 17880 ft 241 kts 330°
2026-04-25 20:09 3.39774 -51.50071 17880 ft 241 kts 330°
2026-04-25 20:10 3.41182 -51.50982 17880 ft 241 kts 330°
2026-04-25 20:10 3.42591 -51.51894 17880 ft 241 kts 330°
2026-04-25 20:10 3.43999 -51.52806 17880 ft 241 kts 330°
2026-04-25 20:10 3.45408 -51.53718 17880 ft 241 kts 330°
2026-04-25 20:11 3.46817 -51.54629 17877 ft 241 kts 330°
2026-04-25 20:11 3.48225 -51.55541 17877 ft 241 kts 330°
2026-04-25 20:11 3.49636 -51.56454 17876 ft 241 kts 330°
2026-04-25 20:11 3.51044 -51.57366 17876 ft 241 kts 330°
2026-04-25 20:12 3.52433 -51.58265 17874 ft 241 kts 330°
2026-04-25 20:12 3.53841 -51.59177 17874 ft 241 kts 330°
2026-04-25 20:12 3.55250 -51.60089 17874 ft 241 kts 330°
2026-04-25 20:12 3.56200 -51.60704 17875 ft 241 kts 330°
2026-04-25 20:13 3.58065 -51.61912 17872 ft 241 kts 330°
2026-04-25 20:13 3.59473 -51.62823 17875 ft 241 kts 330°
2026-04-25 20:13 3.60882 -51.63736 17874 ft 241 kts 330°
2026-04-25 20:13 3.62293 -51.64649 17875 ft 242 kts 330°
2026-04-25 20:14 3.63704 -51.65565 17872 ft 242 kts 330°
2026-04-25 20:14 3.65116 -51.66479 17873 ft 242 kts 330°
2026-04-25 20:14 3.66527 -51.67393 17873 ft 242 kts 330°
2026-04-25 20:14 3.67939 -51.68307 17874 ft 242 kts 330°
2026-04-25 20:15 3.68875 -51.68913 17876 ft 242 kts 330°
2026-04-25 20:15 3.70765 -51.70137 17875 ft 242 kts 330°
2026-04-25 20:15 3.72174 -51.71051 17876 ft 241 kts 330°
2026-04-25 20:15 3.73585 -51.71964 17877 ft 241 kts 330°
2026-04-25 20:16 3.74997 -51.72879 17879 ft 242 kts 330°
2026-04-25 20:16 3.76408 -51.73793 17880 ft 242 kts 330°
2026-04-25 20:16 3.77819 -51.74707 17880 ft 242 kts 330°
2026-04-25 20:16 3.79230 -51.75621 17880 ft 241 kts 330°
2026-04-25 20:17 3.80638 -51.76534 17880 ft 241 kts 330°
2026-04-25 20:17 3.82047 -51.77446 17880 ft 241 kts 330°
2026-04-25 20:17 3.83456 -51.78359 17879 ft 241 kts 330°
2026-04-25 20:17 3.84866 -51.79273 17879 ft 241 kts 330°
2026-04-25 20:18 3.86264 -51.80169 18033 ft 234 kts 332°
2026-04-25 20:18 3.87701 -51.81008 17730 ft 241 kts 333°
2026-04-25 20:18 3.89137 -51.81854 17405 ft 236 kts 332°
2026-04-25 20:18 3.90528 -51.82684 17126 ft 230 kts 332°
2026-04-25 20:19 3.91889 -51.83493 16849 ft 226 kts 333°
2026-04-25 20:19 3.93235 -51.84289 16566 ft 224 kts 333°
2026-04-25 20:19 3.94569 -51.85078 16300 ft 222 kts 333°
2026-04-25 20:19 3.95877 -51.85852 16039 ft 221 kts 333°
2026-04-25 20:20 3.97196 -51.86633 15768 ft 220 kts 332°
2026-04-25 20:20 3.98511 -51.87411 15511 ft 219 kts 332°
2026-04-25 20:20 3.99823 -51.88188 15254 ft 219 kts 332°
2026-04-25 20:20 4.01136 -51.88965 14999 ft 219 kts 333°
2026-04-25 20:21 4.02446 -51.89741 14745 ft 219 kts 332°
2026-04-25 20:21 4.03523 -51.90378 14535 ft 218 kts 332°
2026-04-25 20:21 4.04821 -51.91147 14334 ft 216 kts 333°
2026-04-25 20:21 4.06103 -51.91907 14153 ft 213 kts 332°
2026-04-25 20:22 4.07380 -51.92662 13973 ft 213 kts 333°
2026-04-25 20:22 4.08221 -51.93160 13855 ft 212 kts 332°
2026-04-25 20:22 4.09909 -51.94159 13602 ft 210 kts 333°
2026-04-25 20:22 4.11163 -51.94902 13399 ft 209 kts 332°
2026-04-25 20:23 4.12413 -51.95642 13194 ft 208 kts 332°
2026-04-25 20:23 4.13623 -51.96359 13001 ft 208 kts 333°
2026-04-25 20:23 4.14779 -51.97044 12816 ft 207 kts 333°
2026-04-25 20:23 4.16018 -51.97778 12616 ft 206 kts 333°
2026-04-25 20:24 4.17254 -51.98509 12411 ft 206 kts 333°
2026-04-25 20:24 4.18489 -51.99240 12215 ft 206 kts 333°
2026-04-25 20:24 4.19723 -51.99971 12022 ft 206 kts 332°
2026-04-25 20:24 4.20956 -52.00702 11829 ft 206 kts 333°
2026-04-25 20:25 4.22187 -52.01431 11639 ft 206 kts 333°
2026-04-25 20:25 4.23416 -52.02160 11448 ft 205 kts 332°
2026-04-25 20:25 4.24506 -52.03093 11255 ft 208 kts 314°
2026-04-25 20:25 4.25442 -52.04199 11067 ft 208 kts 312°
2026-04-25 20:26 4.26368 -52.05316 10877 ft 208 kts 313°
2026-04-25 20:26 4.27255 -52.06367 10701 ft 208 kts 313°
2026-04-25 20:26 4.28166 -52.07440 10521 ft 208 kts 313°
2026-04-25 20:26 4.29101 -52.08542 10338 ft 207 kts 313°
2026-04-25 20:27 4.30033 -52.09642 10147 ft 207 kts 313°
2026-04-25 20:27 4.30962 -52.10740 9964 ft 206 kts 313°
2026-04-25 20:27 4.31878 -52.11820 9783 ft 206 kts 313°
2026-04-25 20:27 4.32804 -52.12913 9584 ft 206 kts 313°
2026-04-25 20:28 4.33728 -52.14004 9388 ft 205 kts 313°
2026-04-25 20:28 4.34650 -52.15092 9188 ft 205 kts 313°
2026-04-25 20:28 4.35570 -52.16177 8988 ft 204 kts 313°
2026-04-25 20:28 4.36489 -52.17262 8789 ft 204 kts 313°
2026-04-25 20:29 4.37365 -52.18296 8598 ft 203 kts 313°
2026-04-25 20:29 4.38276 -52.19373 8404 ft 202 kts 313°
2026-04-25 20:29 4.39186 -52.20447 8209 ft 202 kts 313°
2026-04-25 20:29 4.40094 -52.21519 8015 ft 201 kts 313°
2026-04-25 20:30 4.41000 -52.22589 7825 ft 201 kts 313°
2026-04-25 20:30 4.41905 -52.23656 7633 ft 201 kts 313°
2026-04-25 20:30 4.42808 -52.24724 7444 ft 200 kts 313°
2026-04-25 20:30 4.43708 -52.25786 7255 ft 200 kts 313°
2026-04-25 20:31 4.44604 -52.26844 7066 ft 199 kts 313°
2026-04-25 20:31 4.45498 -52.27900 6878 ft 198 kts 313°
2026-04-25 20:31 4.46274 -52.28817 6715 ft 198 kts 313°
2026-04-25 20:31 4.47167 -52.29872 6530 ft 199 kts 313°
2026-04-25 20:32 4.48059 -52.30925 6345 ft 198 kts 313°
2026-04-25 20:32 4.48948 -52.31975 6152 ft 197 kts 314°
2026-04-25 20:32 4.49836 -52.33023 5937 ft 198 kts 313°
2026-04-25 20:32 4.50722 -52.34070 5720 ft 196 kts 313°
2026-04-25 20:33 4.51600 -52.35108 5501 ft 194 kts 313°
2026-04-25 20:33 4.52469 -52.36131 5285 ft 192 kts 314°
2026-04-25 20:33 4.53328 -52.37146 5062 ft 190 kts 313°
2026-04-25 20:33 4.53890 -52.37818 4922 ft 190 kts 313°
2026-04-25 20:34 4.54897 -52.39004 4673 ft 191 kts 313°
2026-04-25 20:34 4.55759 -52.40020 4440 ft 191 kts 313°
2026-04-25 20:34 4.56620 -52.41037 4197 ft 192 kts 313°
2026-04-25 20:34 4.57481 -52.42056 3955 ft 191 kts 313°
2026-04-25 20:35 4.58342 -52.43074 3706 ft 191 kts 314°
2026-04-25 20:35 4.59192 -52.44080 3472 ft 188 kts 314°
2026-04-25 20:35 4.60039 -52.45080 3236 ft 188 kts 314°
2026-04-25 20:35 4.60883 -52.46076 2994 ft 187 kts 314°
2026-04-25 20:36 4.61724 -52.47071 2747 ft 186 kts 314°
2026-04-25 20:36 4.62562 -52.48060 2507 ft 186 kts 314°
2026-04-25 20:36 4.63384 -52.49037 2267 ft 186 kts 312°
2026-04-25 20:36 4.64223 -52.50028 1999 ft 185 kts 313°
2026-04-25 20:37 4.65039 -52.50989 1884 ft 174 kts 313°
2026-04-25 20:37 4.65877 -52.51782 1872 ft 159 kts 334°
2026-04-25 20:37 4.66851 -52.52230 1871 ft 150 kts 341°
2026-04-25 20:37 4.67778 -52.52661 1877 ft 145 kts 341°
2026-04-25 20:38 4.68692 -52.53081 1873 ft 142 kts 342°
2026-04-25 20:38 4.69569 -52.53484 1872 ft 135 kts 342°
2026-04-25 20:38 4.70384 -52.53859 1874 ft 123 kts 342°
2026-04-25 20:38 4.71123 -52.54201 1874 ft 113 kts 341°
2026-04-25 20:39 4.71823 -52.54519 1871 ft 108 kts 343°
2026-04-25 20:39 4.72513 -52.54812 1872 ft 108 kts 352°
2026-04-25 20:39 4.73236 -52.54708 1876 ft 107 kts 35°
2026-04-25 20:39 4.73439 -52.54561 1880 ft 107 kts 49°
2026-04-25 20:40 4.74005 -52.53501 1891 ft 102 kts 64°
2026-04-25 20:40 4.74312 -52.52862 1893 ft 102 kts 65°
2026-04-25 20:40 4.74617 -52.52211 1882 ft 105 kts 67°
2026-04-25 20:40 4.74938 -52.51517 1894 ft 113 kts 67°
2026-04-25 20:41 4.75270 -52.50794 1896 ft 113 kts 69°
2026-04-25 20:41 4.75600 -52.50076 1891 ft 113 kts 69°
2026-04-25 20:41 4.75925 -52.49362 1887 ft 112 kts 66°
2026-04-25 20:41 4.76249 -52.48659 1883 ft 110 kts 68°
2026-04-25 20:42 4.76566 -52.47969 1881 ft 109 kts 69°
2026-04-25 20:42 4.76881 -52.47275 1877 ft 109 kts 67°
2026-04-25 20:42 4.77193 -52.46597 1874 ft 104 kts 67°
2026-04-25 20:42 4.77480 -52.45971 1783 ft 98 kts 70°
2026-04-25 20:43 4.77763 -52.45353 1656 ft 96 kts 68°
2026-04-25 20:43 4.78038 -52.44760 1534 ft 91 kts 68°
2026-04-25 20:43 4.78300 -52.44178 1416 ft 94 kts 69°
2026-04-25 20:43 4.78577 -52.43575 1292 ft 95 kts 66°
2026-04-25 20:44 4.78836 -52.43014 1177 ft 77 kts 66°
2026-04-25 20:44 4.79030 -52.42597 1038 ft 65 kts 68°
2026-04-25 20:44 4.79224 -52.42164 989 ft 67 kts 68°
2026-04-25 20:44 4.79420 -52.41737 920 ft 70 kts 67°
2026-04-25 20:45 4.79626 -52.41292 845 ft 70 kts 67°
2026-04-25 20:45 4.79826 -52.40856 770 ft 69 kts 68°
2026-04-25 20:45 4.80031 -52.40409 674 ft 72 kts 66°
2026-04-25 20:45 4.80229 -52.39948 558 ft 73 kts 67°
2026-04-25 20:46 4.80415 -52.39478 461 ft 72 kts 65°
2026-04-25 20:46 4.80636 -52.39055 367 ft 64 kts 65°
2026-04-25 20:46 4.80845 -52.38647 333 ft 69 kts 64°
2026-04-25 20:46 4.81024 -52.38199 254 ft 69 kts 68°
2026-04-25 20:47 4.81215 -52.37785 155 ft 63 kts 63°
2026-04-25 20:47 4.81402 -52.37391 71 ft 63 kts 66°
2026-04-25 20:47 4.81580 -52.37008 27 ft 58 kts 65°
2026-04-25 20:47 4.81733 -52.36678 22 ft 41 kts 65°
2026-04-25 20:48 4.81830 -52.36469 22 ft 28 kts 64°
2026-04-25 20:48 4.81912 -52.36296 22 ft 28 kts 65°
2026-04-25 20:48 4.82013 -52.36231 23 ft 19 kts 339°
2026-04-25 20:48 4.82094 -52.36266 23 ft 15 kts 346°
2026-04-25 20:49 4.82132 -52.36204 24 ft 14 kts 65°
2026-04-25 20:49 4.82203 -52.36200 24 ft 16 kts 351°
2026-04-25 20:49 4.82254 -52.36157 24 ft 6 kts 139°
2026-04-25 20:49 4.82237 -52.36097 24 ft 13 kts 66°
2026-04-25 20:50 4.82313 -52.36059 24 ft 10 kts 330°
2026-04-25 20:50 4.82332 -52.36051 26 ft 0 kts 156°
2026-04-25 20:54 4.82332 -52.36052 26 ft 0 kts 158°
2026-04-25 20:54 4.82333 -52.36052 26 ft 0 kts 158°